Tracking 22881 objects as of 19-Apr-2021
HD Live streaming from Space Station
objects crossing your sky now

SKYSAT C15

Track SKYSAT C15 now!
10-day predictions


NORAD ID: 45790
Int'l Code: 2020-038BN
Perigee: 401.0 km
Apogee: 406.2 km
Inclination: 53.0 °
Period: 92.5 minutes
Semi major axis: 6774 km
RCS: Unknown
Launch date: June 13, 2020
Source: United States (US)
Launch site: AIR FORCE EASTERN TEST RANGE (AFETR)
aabbcc
Your satellite tracking list
Your tracking list is empty




NASA's NSSDC Master Catalog

Two Line Element Set (TLE):
1 45790U 20038BN  21108.64195676  .00012465  00000-0  17634-3 0  9996
2 45790  52.9981 234.1826 0003810 178.6876 181.4144 15.56951634 48394
Source of the keplerian elements: AFSPC